Find Kosmos-2009

NORAD ID: 19903 Int'l Des: 1989-025 Owner: UNKS Country: SU operational
LEOCIRCULAR

リアルタイム位置

3D地球を読み込み中...

Kosmos-2009について

説明を読み込み中...

次回通過

Passes for default location (London). Set your location on the main map for personalized predictions.

高度履歴

Loading altitude history...

軌道要素

1 19903U 89025B 26131.81888248 .00000006 00000-0 13514-3 0 9999
2 19903 74.0074 152.6844 0040643 46.2251 126.2597 12.55948770702394
Epoch: May 11, 2026 • Age: 8 hours

現在のステータス

高度 1471.4 km
速度 7.11 km/s
衛星直下点 -12.79°S, 54.93°E
打ち上げ日 Mar 24, 1989
運用期間 37.1 years
タイプ other

技術仕様

分類 Payload
質量 60.00 kg
乾燥質量 60.00 kg
総質量 60.00 kg
長さ 0.80 m
直径 0.80 m
スパン 0.80 m
形状 Poly
製造者 NPOPM
バスタイプ Strela-1 11F625
フェーズステータス In Orbit
所有者/国 UNKS/SU

Most Searched